www.pogodaiklimat.ru

Погода и климат >> Архив погоды >> Россия >> город Москва >> Москва


АРХИВ ПОГОДЫ в Москве

Время (UTC), дата Ветер
(напр.,м/с)
 
Видим.   Явления Облачность Т
(С)
Тd
(С)
f
(%)
Тe
(С)
Тes
(С)
Комфортность P
(гПа)
Po
(гПа)
Тmin
(С)
Tmax
(С)
R
(мм)
R24
(мм)
S
(см)
09 11.06 Ю 1 10 км в посл. час ливневой дождь 8/8 600 м
[Sc diur, vesp]
+15.6 +8.7 63 +16 +20 прохладно 1012.2 993.6
12 11.06 ЮЗ 1 10 км {ливн. осадки} 5/1 600 м
[Cu hum Cc]
+20.0 +7.5 44 +22 +34 комфорт 1010.4 992.0
15 11.06 С 1 4000 м слабый ливневой дождь 10/10 600 м
[Cb cap]
+16.0 +12.2 78 +17 +17 прохладно 1009.8 991.3 0.5
18 11.06 штиль 0 4000 м дымка {ливн. осадки} 9/9 600 м
[Sc]
+14.9 +13.3 90 +15 +15 прохладно 1008.4 989.8 +21.3 1
21 11.06 штиль 0 н/о дымка 8/8 600 м
[Sc]
+13.4 +12.5 94 +13 +13 по сезону 1007.5 988.8
00 12.06 СЗ 1 н/о в посл. час ливневой дождь 8/8 600 м
[Sc]
+13.4 +12.4 94 +13 +13 по сезону 1007.4 988.7
03 12.06 штиль 0 4000 м дымка 10/3 600 м
[Sc Ac trans]
+13.6 +12.8 95 +13 +14 прохладно 1005.2 986.6 +12.7 2
06 12.06 штиль 0 10 км 10/5 600 м
[Sc Ac trans]
+19.6 +10.7 56 +21 +23 комфорт 1003.6 985.4 +12.7 1
09 12.06 Ю 2 10 км 9/3 600 м
[Sc Ac trans Ci fib]
+24.1 +9.1 38 +25 +31 комфорт 1001.6 983.6
12 12.06 Ю 2
{12}
4000 м слабый ливневой дождь 10/10 600 м
[Cb cap]
+17.1 +13.3 78 +17 +17 прохладно 1001.8 983.5
15 12.06 З 1
{12}
4000 м дымка {ливн. осадки} 10/10 600 м
[Sc]
+16.9 +14.9 88 +18 +18 по сезону 999.7 981.4 5
18 12.06 штиль 0 4000 м дымка {ливн. осадки} 9/9 600 м
[Sc]
+17.1 +15.1 88 +17 +17 по сезону 999.1 980.9 +25.3 5
21 12.06 З 1 н/о дымка 10/10 600 м
[Sc]
+16.7 +13.1 79 +18 +18 тепло 998.7 980.4
00 13.06 штиль 0 4000 м дымка 3/3 600 м
[Sc]
+13.8 +12.3 91 +13 +13 по сезону 998.7 980.2
03 13.06 СЗ 1 4000 м дымка 10/10 600 м
[Sc]
+14.2 +12.1 87 +15 +15 по сезону 999.8 981.3 +13.6
06 13.06 СЗ 2 10 км 9/9 600 м
[Sc]
+16.4 +11.5 73 +17 +17 по сезону 1001.1 982.7 +13.6
09 13.06 СЗ 2 10 км 9/9 600 м
[Cu med, cong]
+17.2 +11.3 68 +18 +19 по сезону 1003.1 984.7
12 13.06 СЗ 2 10 км 4/4 600 м
[Cu med, cong]
+19.8 +8.1 47 +21 +29 комфорт 1004.2 985.9
15 13.06 С 3 10 км 8/8 600 м
[Cu Sc]
+18.7 +9.8 56 +19 +20 по сезону 1006.4 988.0
18 13.06 С 2 10 км ясно +15.6 +8.1 61 +16 +16 по сезону 1008.8 990.2 +20.8
21 13.06 С 2 н/о ясно +11.7 +5.9 68 +11 +11 прохладно 1011.8 992.9
00 14.06 штиль 0 10 км 1/0
[Ci fib]
+8.7 +5.5 80 +8 +8 холодно 1013.7 994.5
03 14.06 С 1 10 км 9/5 1000 м
[Sc Ac trans Ci fib]
+9.6 +5.7 77 +9 +10 холодно 1015.2 996.1 +7.9
06 14.06 СВ 1 10 км 9/4 600 м
[Sc Ac trans Ci fib]
+13.5 +3.4 50 +14 +18 прохладно 1016.0 997.2 +7.9
09 14.06 СВ 2 10 км 10/6 600 м
[Cu Sc Ac trans Cc]
+14.5 +3.2 47 +14 +17 холодно 1016.9 998.1
12 14.06 С 1 10 км 9/6 600 м
[Sc Ac trans Ci fib]
+16.2 +3.7 43 +17 +21 прохладно 1016.8 998.1
15 14.06 В 1 10 км 10/4 600 м
[Sc Ac trans Cs]
+16.7 +2.4 38 +18 +19 по сезону 1016.7 998.0
18 14.06 штиль 0 10 км 10/0
[Ac trans Ci]
+14.8 +3.9 48 +15 +15 прохладно 1017.3 998.5 +17.3
21 14.06 штиль 0 н/о 10/0
[Ac und]
+11.2 +6.4 72 +11 +11 прохладно 1018.7 999.6
00 15.06 штиль 0 10 км 10/0
[Ac und]
+10.2 +6.5 78 +10 +10 прохладно 1019.4 1000.2
03 15.06 штиль 0 10 км 8/0
[Ac trans Ci]
+12.0 +5.7 65 +12 +13 прохладно 1020.0 1001.0 +10.2
06 15.06 ЮВ 2 10 км ясно +16.8 +1.9 37 +17 +26 по сезону 1020.1 1001.3 +10.2
09 15.06 Ю 2 10 км 3/1 600 м
[Cu hum Ci fib]
+19.0 +1.1 30 +20 +33 опасность
простуды
1020.1 1001.5
12 15.06 Ю 1 10 км 4/0
[Ci sp]
+20.6 +0.1 25 +22 +35 комфорт 1019.6 1001.1
15 15.06 Ю 2 10 км 8/0
[Cs]
+20.4 +1.6 29 +21 +24 комфорт 1019.0 1000.5
18 15.06 штиль 0 10 км 8/0
[Cs]
+17.5 +1.8 35 +18 +18 по сезону 1019.2 1000.5 +21.6
21 15.06 штиль 0 н/о ясно +11.7 +6.0 68 +11 +11 прохладно 1020.8 1001.8
00 16.06 штиль 0 10 км 6/0
[Cs]
+8.8 +6.3 84 +8 +8 холодно 1021.6 1002.3
03 16.06 штиль 0 10 км 10/0
[Cs]
+12.4 +5.7 64 +12 +14 прохладно 1022.2 1003.1 +8.4
06 16.06 ЮВ 1 10 км 8/0
[Cs]
+20.1 +3.9 34 +22 +31 комфорт 1022.1 1003.5 +8.4
09 16.06 ЮВ 1 10 км ясно +21.9 +2.7 28 +22 +40 комфорт 1021.5 1003.1
12 16.06 В 1 10 км 3/3 1000 м
[Cu hum]
+23.7 +3.8 27 +23 +33 комфорт 1020.5 1002.2
15 16.06 В 1 10 км 3/3 1000 м
[Cu hum]
+23.2 +3.9 28 +23 +26 комфорт 1019.5 1001.2
18 16.06 штиль 0 10 км 6/0
[Ci fib]
+18.3 +7.4 49 +18 +18 по сезону 1020.0 1001.4 +24.0
21 16.06 штиль 0 н/о 3/0
[Ci fib]
+13.8 +8.7 71 +14 +14 по сезону 1021.0 1002.1
00 17.06 штиль 0 10 км ясно +11.4 +8.7 83 +11 +11 прохладно 1021.3 1002.2
03 17.06 штиль 0 10 км ясно +13.7 +10.6 82 +13 +15 прохладно 1021.8 1002.9 +10.9
06 17.06 В 1 10 км ясно +22.1 +7.8 40 +23 +34 комфорт 1020.9 1002.5 +10.9
09 17.06 СВ 1 10 км 3/3 1000 м
[Cu hum]
+23.4 +5.7 32 +24 +37 комфорт 1020.1 1001.7
12 17.06 СВ 1 10 км 6/6 1000 м
[Cu hum]
+24.2 +6.2 31 +24 +30 комфорт 1018.9 1000.7
15 17.06 В 1 10 км 8/8 1000 м
[Cu hum]
+24.7 +5.8 30 +25 +25 комфорт 1018.0 999.8
18 17.06 штиль 0 10 км 8/3 600 м
[Sc Ci fib]
+19.9 +9.9 52 +21 +21 комфорт 1018.1 999.6 +25.6
21 17.06 штиль 0 н/о ясно +15.1 +10.8 75 +15 +15 по сезону 1018.6 999.8
00 18.06 штиль 0 10 км ясно +13.4 +10.7 84 +13 +13 по сезону 1019.0 1000.1
03 18.06 штиль 0 10 км ясно +15.9 +12.8 82 +16 +18 по сезону 1018.4 999.7 +12.3
06 18.06 В 1 10 км ясно +24.6 +8.0 35 +25 +36 комфорт 1017.3 999.1 +12.3

 

Местоположение метеостанции Москва (город Москва, Россия): широта 55.83 долгота 37.62 высота над уровнем моря 156 м.

В архиве по умолчанию представлена погода в Москве за последнюю неделю. Архивные данные за месяц целиком и за предыдущие месяцы, начиная с января 2011 года, Вы можете получить, выбрав интересующий диапазон дат из раскрывающегося списка и нажав кнопку "Ввод!".


*Определитесь, кто Вы:
робот инопланетянин человек

Внимание! Время в таблицах - всемирное. Для получения местного времени необходимо прибавить поправку, которая в Москве равна 3 ч.

Смотрите также архив погоды в соседних городах и на ближайших метеорологических станциях:

Погода в Москве (Балчуг) (город Москва, Россия) (9 км)
Погода в Москве (Тушино) (город Москва, Россия) (12 км)
Погода в Долгопрудном (Московская область, Россия) (13 км)
Погода в Москве (Строгино) (город Москва, Россия) (14 км)
Погода в Красногорске (Московская область, Россия) (18 км)
Погода в Шереметьево (Московская область, Россия) (20 км)
Погода в Немчиновке (город Москва, Россия) (21 км)
Погода в Железнодорожном АМС (Московская область, Россия) (23 км)
Погода в Луговой (Московская область, Россия) (26 км)
Погода в Пушкино (Московская область, Россия) (26 км)

Пояснения к столбцам:

Ветер - указаны скорость ветра в м/с - средняя за 10 мин, порывы в срок и между сроками (в фигурных скобках) и направление, откуда дует ветер: С - северный, СВ - северо-восточный, В - восточный, ЮВ - юго-восточный, Ю - южный, ЮЗ - юго-западный, З - западный, СЗ - северо-западный.
Видимость - горизонтальная дальность видимости в метрах или километрах. При видимости от 1 до 10 км при отсутствии осадков обычно наблюдается дымка, при ухудшении видимости до 1 км и менее - туман. В сухую погоду видимость может ухудшаться дымом, пылью или мглою.
Явления - указаны атмосферные явления, наблюдавшиеся в срок или в последний час перед сроком; фигурными скобками обозначены явления, наблюдавшиеся между сроками (за 1-3 часа до срока); квадратными скобками обозначены град или гололедные отложения с указанием их диаметра в мм.
Облачность - указаны через наклонную черту общая и нижняя облачность в баллах и высота нижней границы облаков в метрах; квадратными скобками обозначены формы облаков: Ci - перистые, Cs - перисто-слоистые, Cc - перисто-кучевые, Ac - высококучевые, As - высокослоистые, Sc - слоисто-кучевые, Ns - слоисто-дождевые, Cu - кучевые, Cb - кучево-дождевые. Подробнее классификацию облаков см. в Атласе облаков (PDF).
T - Температура воздуха - температура, измеренная на высоте 2 м над землей.
Td - Температура точки росы - температура, при понижении до которой содержащийся в воздухе водяной пар достигнет насыщения.
f - Относительная влажность воздуха - влажноcть воздуха, измеренная на высоте 2 м над землей.
Te - Эффективная температура - температура, которую ощущает одетый по сезону человек в тени. Характеристика душности погоды. При расчете учитывается влияние влажности воздуха и скорости ветра на теплоощущения человека.
Tes - Эффективная температура на солнце - температура, которую ощущает человек, с поправкой на солнечный нагрев. Характеристика знойности погоды. Зависит от высоты солнца над горизонтом, облачности и скорости ветра. Ночью, в пасмурную погоду, а также при ветре 12 м/с и более поправка равна нулю.
P - Атмосферное давление - приведенное к уровню моря атмосферное давление.
Po - Атмосферное давление - измеренное на уровне метеостанции атмосферное давление.
Tmin - Минимальная температура - минимум температуры воздуха на высоте 2 м над землей.
Tmax - Максимальная температура - максимум температуры воздуха на высоте 2 м над землей.
R - Количество осадков - Количество выпавших осадков за период времени, мм. При наведении курсора мыши на число - период времени, за который выпало указанное количество осадков.
R24 - Количество осадков - Количество выпавших осадков за 24 часа, мм.
S - Снежный покров - Высота снежного покрова, см. При наведении курсора мыши на число - состояние снежного покрова и степень покрытия местности в баллах.